Temp
23 22 22 24 24 24 24 23 22 22 22 22 21 21 21 21 22 24 25 24 24 24 24 24 23 23 23 23 23 23 23 24 23 23 23 24 24 24 24 23 23 24 23 24
21 22 24 25 25 26 23 22 21 22 21 22 21 21 21 21 21 23 24 24 24 23 22 23 23 23 23 23 23 23 24 24 24 24 24 24 24 24 24 24 24 24 24 24
22 25 25 26 25 24 22 22 21 23 21 21 21 21 21 21 21 22 22 23 24 23 22 23 23 23 22 23 23 23 24 24 25 25 24 24 24 24 23 23 24 24 24 24
24 25 26 25 25 23 23 23 23 21 21 21 21 22 21 22 21 21 22 23 24 24 23 23 23 22 22 23 23 23 24 24 24 24 25 25 24 24 24 24 24 24 24 24
24 26 25 25 24 23 24 23 21 22 20 21 21 21 22 21 21 21 22 22 25 24 24 23 23 23 23 23 23 23 24 24 24 24 25 25 24 24 25 24 24 24 24 24
24 25 25 24 24 25 23 21 20 20 19 20 22 22 21 21 21 22 23 23 23 25 24 24 24 23 23 23 23 24 24 24 24 24 24 25 24 24 24 24 24 24 24 24
24 25 24 23 22 23 21 19 19 20 20 21 21 21 22 23 21 22 22 23 23 24 23 23 24 23 22 22 23 23 24 24 23 24 24 24 24 24 24 24 24 24 24 24
22 23 22 23 22 21 20 21 19 22 20 21 22 21 23 24 24 24 25 24 23 23 24 24 24 23 22 22 23 23 23 23 23 23 24 24 24 24 24 24 24 24 24 24
22 23 26 24 24 24 22 21 21 19 20 21 21 23 24 24 23 22 23 23 23 23 23 23 23 23 22 22 23 23 24 23 24 23 23 23 23 23 24 24 23 23 23 23
24 22 25 26 25 24 23 22 22 19 21 23 22 22 22 23 22 22 23 23 23 22 22 23 23 22 22 22 24 23 24 24 24 24 23 23 23 23 24 23 23 23 23 23
22 21 24 25 25 22 23 22 21 19 19 21 22 23 23 24 24 23 24 25 25 24 23 22 23 22 22 22 22 23 23 24 24 24 23 23 23 23 23 23 24 24 23 23
22 20 21 24 24 23 23 23 21 21 23 19 20 22 22 24 24 25 25 25 24 25 24 22 22 21 21 22 22 22 23 23 24 24 23 23 23 23 23 23 23 23 23 23
22 20 21 24 24 23 23 23 22 18 18 20 22 23 23 22 22 23 22 22 23 23 22 21 21 21 21 21 21 21 22 23 23 24 23 23 23 23 23 23 22 22 22 22
22 18 22 21 22 22 22 21 21 20 20 20 22 23 21 23 22 21 20 20 21 21 21 20 20 20 20 21 21 21 21 22 23 23 23 23 23 22 23 23 22 21 21 21
20 20 20 21 22 21 20 20 20 22 19 23 21 21 20 20 21 21 20 20 20 21 20 20 19 19 20 20 20 20 20 20 22 24 23 23 23 23 22 22 21 21 20 21
17 21 21 21 22 23 22 21 21 20 20 20 19 21 21 20 21 20 20 20 21 20 21 21 20 20 19 19 19 19 20 21 21 21 23 22 22 22 21 21 20 20 20 19
18 18 19 20 19 22 21 21 20 21 21 20 20 20 21 19 20 20 20 20 19 19 19 18 18 19 19 19 20 20 20 21 21 21 21 21 21 21 21 20 20 19 19 19
19 16 17 19 20 20 21 20 21 21 20 19 20 21 20 19 18 18 19 19 19 18 18 17 17 17 17 18 20 20 20 20 20 21 21 21 21 20 20 19 19 19 19 19
15 15 16 18 17 19 21 21 21 20 21 19 19 20 20 19 19 18 17 16 16 16 16 15 15 16 16 17 18 19 19 19 19 19 19 19 19 19 19 19 19 19 19 19
14 13 16 15 19 19 19 21 21 20 19 19 18 21 20 18 19 19 16 15 15 14 14 14 14 14 15 15 17 18 18 18 18 18 18 18 19 19 18 18 17 18 19 18
16 14 16 15 17 17 18 21 20 20 20 18 19 19 18 18 18 18 15 14 13 14 14 14 14 13 14 15 15 15 16 15 16 17 17 17 18 18 18 17 17 18 17 17
17 16 15 13 17 19 19 20 20 20 18 18 17 17 17 17 16 15 14 14 14 14 14 14 13 13 14 14 14 13 13 14 15 15 17 16 17 15 16 17 17 17 17 16
17 16 15 15 15 16 16 18 19 17 18 18 17 16 17 17 16 15 14 13 14 14 14 14 14 13 13 13 14 13 13 14 14 14 14 14 15 14 15 16 17 17 16 15
17 15 16 17 18 19 18 18 19 19 18 17 17 17 16 17 16 14 14 14 13 14 13 14 14 13 13 14 14 13 14 14 14 13 13 13 13 14 14 15 15 15 15 15
16 16 15 16 18 18 19 19 19 18 17 17 17 17 17 16 15 15 14 14 14 14 15 15 15 14 13 14 14 14 15 15 15 15 14 14 15 15 15 15 15 15 15 15
15 17 17 16 17 17 18 20 19 18 18 17 18 17 16 16 16 15 14 14 14 14 14 14 14 14 14 15 15 15 15 15 15 15 15 15 15 14 14 15 15 15 15 15
Height
782 798 807 799 796 795 798 805 814 808 805 807 819 821 812 810 807 807 804 807 809 810 814 819 824 826 829 833 836 838 840 842 845 848 849 852 854 857 860 862 864 865 865 866
797 805 790 788 789 791 801 812 817 811 808 811 817 815 814 812 812 808 806 806 807 811 815 818 822 826 827 831 835 838 840 842 843 846 848 850 853 856 859 862 862 864 865 866
802 790 783 786 792 796 805 809 817 810 812 813 816 820 814 812 810 807 806 804 804 805 812 815 819 823 826 829 833 836 839 840 843 845 848 849 852 856 858 860 861 863 866 866
789 782 783 790 794 795 808 793 798 811 816 829 815 832 818 811 810 811 808 803 801 802 806 810 816 820 823 826 831 835 838 840 843 845 847 848 850 853 855 858 860 862 864 866
794 784 786 792 791 787 798 789 804 811 822 822 823 828 812 809 817 808 804 799 794 797 801 805 809 813 819 825 827 832 837 839 842 845 846 848 850 852 854 856 859 860 862 863
784 771 776 781 778 777 786 802 812 818 829 837 815 820 820 812 797 794 794 794 791 791 796 799 803 814 819 824 827 830 834 837 840 844 846 847 848 851 852 854 856 858 860 862
786 779 774 775 791 788 795 816 846 843 846 834 814 821 799 785 783 781 785 787 788 788 792 799 804 812 817 820 824 828 832 835 839 841 844 847 848 850 851 853 855 856 858 860
810 809 784 773 784 795 802 806 836 837 843 828 811 817 789 763 758 764 769 779 783 786 787 794 798 806 811 814 820 825 829 832 836 839 842 846 848 849 851 852 853 854 855 857
805 799 767 770 770 776 799 808 799 825 824 826 812 791 767 764 767 769 772 774 780 782 784 790 795 802 807 811 815 819 824 829 833 836 841 844 846 848 849 851 852 852 853 854
786 806 774 768 766 770 783 782 809 824 834 828 812 802 790 773 771 770 771 771 775 779 783 785 791 798 803 807 810 815 820 824 829 833 837 841 844 846 847 849 850 851 851 852
784 798 787 773 778 787 789 794 799 808 816 826 823 799 760 757 754 761 752 754 760 769 774 780 785 792 797 804 807 810 816 821 825 830 834 837 841 844 845 847 848 848 850 850
784 800 805 785 770 769 774 781 788 813 807 814 813 798 753 747 748 748 752 753 756 759 767 773 781 790 796 800 805 808 812 817 821 826 831 834 837 840 842 844 847 847 848 849
781 801 811 791 779 773 783 779 783 799 804 811 809 794 754 751 749 749 753 755 756 759 767 772 782 786 791 798 802 806 809 813 817 823 828 832 834 836 838 841 844 846 847 849
776 801 796 813 801 790 793 788 784 793 808 805 795 786 773 762 759 758 757 756 758 764 770 776 780 784 788 795 800 802 806 810 814 818 822 827 830 833 836 838 840 843 845 847
785 799 797 792 790 790 803 792 787 786 797 793 789 787 780 771 764 762 760 759 762 766 771 775 779 783 788 793 796 800 805 808 810 814 817 820 827 830 833 833 837 840 844 845
790 794 792 794 787 786 793 788 787 789 791 791 790 783 771 768 762 764 762 765 767 770 771 776 781 783 787 789 794 799 804 805 811 813 814 819 823 826 829 831 833 838 840 842
791 799 801 805 798 785 801 794 793 790 787 790 793 784 772 776 772 769 766 766 772 774 776 778 782 782 785 790 794 798 802 805 809 812 814 816 820 822 825 828 831 835 836 838
791 804 804 806 799 819 792 785 785 788 786 788 782 776 775 777 776 773 771 771 775 777 779 782 783 786 789 792 793 795 798 802 807 808 810 812 816 819 822 827 829 832 833 834
791 803 814 812 815 805 791 787 785 789 788 781 782 775 774 775 775 781 782 781 781 783 784 787 787 789 789 790 791 794 798 802 804 805 807 810 812 816 819 822 825 827 829 831
795 800 806 818 811 813 791 778 771 781 801 776 778 772 774 780 786 787 786 786 786 787 788 788 790 790 789 790 791 793 793 801 802 805 808 809 811 812 816 820 823 825 825 829
803 809 811 818 815 805 786 777 774 802 798 776 774 772 777 779 777 779 785 786 788 790 789 790 791 793 793 791 792 795 796 800 800 803 805 810 809 811 815 818 821 824 825 829
802 809 815 822 813 804 781 780 788 781 776 775 776 775 778 779 782 787 789 790 792 792 792 792 794 796 797 795 795 797 797 801 802 804 804 805 815 803 810 817 820 823 824 828
801 796 805 806 805 786 781 778 773 774 774 775 775 778 783 781 787 791 793 795 796 796 797 794 795 799 801 801 800 800 803 805 806 806 808 812 811 812 816 821 823 824 828 830
785 787 793 793 784 779 777 773 770 769 772 773 775 779 784 789 789 794 793 794 799 800 801 799 800 801 803 805 806 808 810 808 810 813 816 818 819 821 822 825 826 826 828 831
783 783 791 792 783 780 776 771 771 771 773 776 779 782 786 790 793 796 797 797 802 800 796 800 806 807 809 807 810 814 813 813 813 814 818 821 822 824 826 828 831 830 832 834
777 778 787 790 775 778 775 770 772 772 775 779 780 786 789 793 795 797 798 799 800 801 805 808 810 810 812 812 814 818 819 818 818 819 821 824 825 826 829 833 833 834 835 836
Wind_Speed
2 4 4 2 5 4 4 3 5 3 5 4 2 1 5 7 4 6 9 12 14 16 18 21 23 24 27 25 24 24 22 24 24 19 18 16 15 11 9 7 8 6 7 4
5 1 4 4 3 2 5 7 2 1 4 2 4 3 2 6 3 4 4 13 15 11 10 17 22 22 28 29 28 25 25 25 22 21 18 18 17 14 11 8 6 6 7 5
5 3 4 3 2 4 4 5 5 3 5 3 3 4 5 4 5 6 7 8 13 17 14 14 20 24 25 30 32 30 27 25 23 20 18 15 15 12 11 10 10 8 7 5
2 3 3 3 4 5 3 7 9 10 5 2 3 2 4 9 6 7 12 9 15 16 16 16 21 22 26 32 34 31 29 26 24 21 20 19 18 16 13 12 11 9 8 9
6 2 3 4 7 8 5 11 6 2 3 2 4 2 3 11 13 15 16 8 16 16 19 18 24 28 28 27 35 33 29 28 25 23 20 20 18 15 12 13 13 11 10 9
6 3 5 6 2 9 11 7 7 5 3 2 7 5 5 11 22 14 13 11 12 17 18 20 27 22 22 23 30 32 31 28 26 24 21 20 20 18 15 15 15 13 12 10
4 3 1 4 8 6 5 7 3 2 0 5 4 4 8 17 14 19 18 13 12 15 15 14 14 20 22 27 31 32 32 31 27 25 22 20 18 17 16 15 15 15 14 13
1 5 8 4 5 7 4 6 6 6 4 2 1 5 6 9 17 16 19 15 12 12 14 15 21 24 26 29 31 33 35 33 30 28 24 20 18 17 16 15 13 13 14 15
1 5 1 5 5 9 6 5 5 5 2 1 4 6 5 2 8 11 15 15 11 12 13 15 17 22 25 27 31 37 38 35 32 28 23 20 17 15 14 14 11 11 13 12
2 3 3 2 4 2 5 7 2 2 4 4 4 5 5 11 9 15 11 14 11 11 13 15 19 22 26 31 39 36 37 38 34 28 24 20 18 15 13 12 11 11 10 12
3 2 6 1 2 7 2 2 1 4 4 5 2 6 5 11 15 19 24 24 23 19 17 16 21 26 30 29 31 37 35 36 34 30 25 21 17 15 11 10 10 10 6 8
0 4 3 6 7 2 4 6 6 4 4 2 3 6 7 6 7 19 12 15 18 19 17 14 18 20 24 27 28 33 34 35 34 29 25 22 18 15 13 11 9 9 10 9
3 1 3 5 4 4 4 3 2 3 3 5 5 6 6 5 4 7 9 8 11 14 15 11 14 20 18 20 23 27 32 34 32 28 24 22 21 19 16 13 9 10 12 12
4 2 5 4 6 1 5 5 3 4 3 4 5 6 8 5 2 4 7 7 7 8 11 9 10 15 17 21 23 26 28 31 29 28 26 25 23 18 16 9 14 11 13 16
4 5 4 5 3 6 8 4 7 1 3 4 5 4 5 7 5 4 4 7 10 11 12 10 9 10 19 23 23 24 24 20 24 28 29 27 20 13 12 12 13 19 16 15
3 1 2 1 3 4 1 8 3 4 4 1 4 2 3 5 5 8 6 5 6 7 9 8 7 12 15 15 18 16 15 14 14 18 24 22 15 14 13 17 20 20 21 20
2 3 2 5 6 4 4 0 3 1 4 3 2 3 5 6 9 6 5 6 7 6 5 7 3 7 14 18 21 18 15 16 18 19 15 15 20 21 13 20 23 26 19 15
4 3 2 2 0 4 4 1 5 2 2 4 4 2 6 10 10 11 9 8 9 7 6 5 7 8 6 11 17 16 17 20 20 16 15 17 18 17 18 20 20 18 18 17
2 4 3 3 3 3 4 6 5 4 5 3 5 5 9 12 11 11 9 9 9 8 7 8 9 8 7 7 12 16 13 13 14 17 17 20 19 18 21 24 23 21 16 14
5 6 4 3 2 4 4 2 4 5 5 3 5 9 11 2 8 2 5 8 9 10 10 10 10 9 10 6 7 12 15 19 15 11 11 13 15 15 19 16 12 9 12 13
2 3 4 1 2 6 5 1 3 3 6 5 9 4 5 5 4 9 7 9 10 10 12 14 14 13 10 7 9 12 17 11 10 13 8 5 7 17 18 17 14 10 12 14
4 4 2 2 1 3 1 1 5 4 2 4 2 1 2 7 11 8 8 6 7 9 12 14 17 16 12 11 14 18 20 14 12 13 12 5 6 8 14 13 11 13 15 16
1 5 4 6 5 5 4 5 3 4 3 3 5 6 3 12 10 6 6 5 6 9 10 16 18 18 16 15 15 19 15 14 14 17 18 14 13 7 9 8 9 10 13 16
2 3 3 2 3 3 4 4 2 4 3 4 4 6 5 6 7 5 5 7 6 8 11 15 15 17 18 16 17 16 13 15 16 19 19 15 12 10 8 7 6 8 10 10
4 5 5 1 3 4 3 3 3 4 7 6 7 5 5 6 6 5 5 7 8 11 14 13 12 15 15 15 15 12 12 11 14 15 14 13 12 10 10 8 6 5 6 6
4 6 4 5 8 5 5 3 0 5 6 8 8 7 6 5 6 10 6 10 10 12 11 10 8 11 11 12 12 10 9 10 11 12 10 8 8 8 8 7 7 5 4 3
Wind_Direction
49 96 208 135 199 160 124 108 120 155 180 134 112 162 315 341 339 192 175 181 186 191 189 179 188 200 201 200 194 197 201 193 184 194 187 186 195 192 191 197 180 185 166 146
35 253 210 176 178 153 116 123 131 33 111 88 171 276 249 314 290 315 255 186 189 175 167 177 182 188 199 195 191 186 179 176 176 175 178 181 184 186 188 178 181 193 185 199
139 222 102 157 178 128 155 177 190 152 141 48 117 310 224 219 270 290 273 221 185 172 177 182 179 189 194 196 197 190 183 181 181 183 179 173 184 194 187 185 190 185 186 206
198 272 202 162 219 155 202 192 144 140 137 193 224 221 212 226 255 267 255 214 188 181 185 181 182 189 193 203 202 199 188 184 186 188 189 186 182 182 198 198 199 201 199 195
249 243 215 195 217 164 237 110 116 88 61 93 191 130 240 156 240 226 235 221 193 184 182 188 189 192 198 198 203 205 200 193 193 192 193 192 194 200 210 208 209 214 211 217
239 221 186 208 14 177 130 83 54 52 53 287 179 190 200 188 224 232 210 203 196 186 191 191 191 185 190 195 200 204 202 199 200 201 198 198 200 201 207 211 217 219 222 227
314 246 59 125 77 20 88 78 22 349 291 234 152 164 245 198 190 214 203 189 189 186 183 182 174 182 188 191 198 202 201 204 205 203 204 205 210 213 211 210 220 229 238 232
221 317 168 177 169 172 158 142 160 208 194 247 273 231 245 213 199 199 191 184 173 181 177 183 184 185 192 193 194 200 204 206 206 207 209 213 220 224 228 230 230 242 244 245
176 277 220 199 151 149 209 205 155 104 354 101 226 280 289 144 142 160 164 160 176 171 175 181 182 193 193 192 197 200 206 211 210 214 214 215 218 221 225 229 236 249 241 233
188 300 251 246 105 337 156 167 114 23 163 241 271 270 232 212 186 173 157 169 183 165 179 183 191 194 196 199 204 204 209 212 213 215 221 220 225 227 232 226 246 249 241 231
145 125 295 358 181 186 124 165 70 130 164 166 288 268 219 206 180 183 179 182 190 192 180 185 196 196 195 201 202 206 209 211 214 216 216 213 217 228 235 243 251 250 244 236
28 146 269 245 292 230 197 193 153 137 242 243 155 275 313 193 191 187 204 200 208 202 190 172 184 173 182 199 205 208 211 213 214 215 216 213 211 213 221 227 251 258 252 249
213 358 7 355 343 43 34 6 90 103 85 200 148 266 360 31 155 167 159 165 181 189 180 152 165 173 185 198 202 206 211 214 215 210 212 214 212 213 216 221 240 276 267 254
119 130 148 206 237 345 325 343 348 149 135 180 219 310 346 349 286 153 146 141 141 136 157 157 161 170 171 190 199 203 210 215 212 207 206 213 213 211 208 240 260 285 290 258
105 190 170 175 271 86 254 353 357 72 99 179 284 314 324 316 324 323 143 131 138 154 159 166 164 163 179 188 194 196 202 196 207 208 206 203 195 202 225 247 266 262 271 269
344 170 283 66 97 268 337 30 344 15 19 5 315 7 323 0 58 56 71 113 146 164 192 180 162 171 174 186 179 183 189 190 203 211 196 179 203 232 256 248 255 248 258 256
86 90 28 169 298 37 336 290 56 226 359 310 335 239 289 49 64 53 75 108 113 81 78 80 89 138 175 183 189 192 202 201 212 207 196 199 222 224 235 243 248 254 228 218
116 104 66 259 66 183 282 182 152 229 253 311 259 214 105 100 82 62 53 79 83 83 86 75 88 114 128 173 174 176 197 208 204 204 207 210 203 220 228 235 223 218 215 216
100 116 99 199 183 274 163 212 155 147 277 186 241 153 143 116 92 62 62 63 69 65 52 65 81 99 119 129 163 178 180 201 208 211 209 207 223 220 223 221 218 210 202 201
83 92 130 128 93 216 248 180 94 91 295 180 212 179 168 266 96 136 120 102 91 90 77 67 65 80 86 87 191 187 187 188 186 183 210 225 226 226 221 206 176 189 174 174
24 31 135 130 198 281 251 210 88 118 244 153 204 202 169 164 175 151 142 106 105 103 97 91 81 64 57 72 132 117 132 120 188 213 216 229 228 210 187 169 164 160 159 161
182 130 161 104 136 282 139 118 173 219 355 146 182 284 90 94 104 88 71 83 103 99 100 98 90 76 68 84 106 92 84 98 113 128 159 164 199 143 143 150 151 167 171 170
247 176 179 171 218 251 264 224 266 198 144 174 126 68 82 115 110 109 115 116 107 96 105 102 95 85 80 82 89 91 85 101 107 103 100 117 133 109 105 129 150 161 182 179
207 164 126 87 294 286 323 293 210 145 127 143 113 114 108 114 107 132 124 111 99 113 118 103 102 94 86 85 88 92 98 98 98 98 101 105 107 106 113 109 125 138 152 164
202 142 142 352 298 325 309 297 329 85 99 93 114 124 126 128 128 133 120 107 139 115 89 92 100 101 109 109 100 97 93 92 91 92 94 97 99 96 96 104 115 124 142 160
189 174 154 209 202 165 203 190 74 136 128 143 138 142 136 158 144 133 115 123 120 118 114 109 100 104 106 102 101 105 102 100 103 101 97 94 98 104 112 117 112 111 105 108